This is the latest recevied weather packets stored in our database for station/object KY4LEX. If no packets are shown the sender has not sent any weather packets the latest 10 day(s).
| Time | Temp. | Humidity | Pressure | Rain* | Wind** | Luminosity | Snow |
|---|---|---|---|---|---|---|---|
| 1777826357 | 15° C | 35% | 1025.8 hPa | 0 mm | - | 698 W/m² | - |
| 1777826055 | 15° C | 32% | 1025.7 hPa | 0 mm | - | 696 W/m² | - |
| 1777824539 | 14.44° C | 36% | 1026.3 hPa | 0 mm | - | 674 W/m² | - |
| 1777823931 | 14.44° C | 35% | 1026.2 hPa | 0 mm | - | 656 W/m² | - |
| 1777821814 | 13.89° C | 35% | 1026.4 hPa | 0 mm | - | 602 W/m² | - |
| 1777820298 | 12.78° C | 31% | 1026.4 hPa | 0 mm | - | 552 W/m² | - |
| 1777816662 | 10.56° C | 42% | 1026.6 hPa | 0 mm | - | 224 W/m² | - |
| 1777816359 | 10.56° C | 45% | 1026.4 hPa | 0 mm | - | 53 W/m² | - |
| 1777815451 | 9.44° C | 56% | 1026.3 hPa | 0 mm | - | 103 W/m² | - |
| 1777814541 | 8.89° C | 58% | 1026.4 hPa | 0 mm | - | 42 W/m² | - |
| 1777813935 | 8.33° C | 63% | 1026.5 hPa | 0 mm | - | 40 W/m² | - |
| 1777813633 | 7.78° C | 65% | 1026.5 hPa | 0 mm | - | 59 W/m² | - |
| 1777813330 | 7.22° C | 65% | 1026.4 hPa | 0 mm | - | 50 W/m² | - |
| 1777813027 | 7.22° C | 66% | 1026.4 hPa | 0 mm | - | 40 W/m² | - |
| 1777811818 | 5.56° C | 73% | 1026.3 hPa | 0 mm | - | 33 W/m² | - |
| 1777811515 | 5° C | 76% | 1026.5 hPa | 0 mm | - | 32 W/m² | - |
| 1777811210 | 4.44° C | 80% | 1026.4 hPa | 0 mm | - | 31 W/m² | - |
| 1777810302 | 2.22° C | 98% | 1026.3 hPa | 0 mm | - | 28 W/m² | - |
| 1777809997 | 1.67° C | 98% | 1026.3 hPa | 0 mm | - | 27 W/m² | - |
| 1777807275 | 0° C | 97% | 1025.6 hPa | 0 mm | - | 17 W/m² | - |
| 1777806971 | 0° C | 97% | 1025.5 hPa | 0 mm | - | 15 W/m² | - |
| 1777806667 | -0.56° C | 97% | 1025.8 hPa | 0 mm | - | 13 W/m² | - |
| 1777806061 | -0.56° C | 97% | 1025.6 hPa | 0 mm | - | 9 W/m² | - |
| 1777805756 | -0.56° C | 97% | 1025.5 hPa | 0 mm | - | 7 W/m² | - |
| 1777803032 | 0° C | 97% | 1025.3 hPa | 0 mm | - | 0 W/m² | - |
* Rain latest hour (hover to see other rain measurements)
** Current wind speed in m/s (hover to see current wind gust speed)